Zurück zum Katalog

STARLINK-34675

AktivKommunikationVLEO
NORAD 64809·PAYLOAD·🇺🇸 United States

Gestartet Jul 16, 2025 von Vandenberg Space Force Base

Loading…

Nächste Überflüge (nächste 24 Stunden)

TLE

AktuellSource: CelesTrak SupGP

Epoche: Sep 15, 2026, 03:44 UTC

1 64809C 25150V   26258.15604167  .00059698  00000+0  50035-2 0  2582
2 64809  70.0025  16.7313 0003161 267.1706 227.9513 14.98295824    16

Verfolge STARLINK-34675 in Echtzeit mit AllMySat

Download on the App Store